Weather in Piura

Peru     5°11′32″S   80°37′40″W
temp.,
°C
wind,
m/s
gust,
m/s
humid.,
%
clouds,
%
prec.,
mm/h
press.,
hPa
HPBL,
m
16 may, sun
sun1601:00+22sse456999 0.0 1012399
04:00+21s447289 0.0 1011355
07:00+21s447494 0.0 1013339
10:00+24s336244 0.0 1015586
13:00+28ssw434958 0.0 10121055
16:00+26s655664 0.0 1010823
19:00+25ssw67606 0.0 1012519
22:00+22s666821 0.0 1014383
17 may, mon
mon1701:00+21s457222 0.0 1013321
04:00+20s447523 0.0 1012300
07:00+20sse55765 0.0 1013294
10:00+25sse44595 0.0 1014615
13:00+30s44445 0.0 10111023
16:00+29sw76485 0.0 1009939
19:00+25ssw67585 0.0 1012512
22:00+22s456730 0.0 1015489
18 may, tue
tue1801:00+21s446953 0.0 1014404
04:00+20s337414 0.0 1013356
07:00+20s44758 0.0 1015361
10:00+24sse44595 0.0 1015704
13:00+29s444668 0.0 10121174
16:00+28sw6547100 0.0 10101029
19:00+25ssw6758100 0.0 1012479
22:00+22s5567100 0.0 1014412
19 may, wed
wed1901:00+21s4571100 0.0 1013388
04:00+20sse567479 0.0 1012406
07:00+20sse567658 0.0 1013359
10:00+24sse54585 0.0 1013643
13:00+29s55445 0.0 10101086
16:00+29s77445 0.0 10081164
19:00+24s785992 0.0 1010605
22:00+21s5668100 0.0 1012492
20 may, thu
thu2001:00+20s447240 0.0 1012420
04:00+19sse55760 0.0 1011364
07:00+19sse44762 0.0 1012333
10:00+23s33605 0.0 1013650
13:00+28ssw54460 0.0 10101028
16:00+24sw65580 0.0 1009557
19:00+23sw56640 0.0 1011392
22:00+21s66660 0.0 1013427